Theta_e
312 312 312 312 311 311 311 311 311 311 311 311 311 311 311 310 311 311 311 311 310 311 311 310 310 310 310 310 310 311 309 306 304 303 301 311 312 314 315 315 314 319 322 321 318 316 308 306 306 309 307 307 306 306 311 309 310 308 301 300 299 301 301 305 305 306 308 306 308 308 309 308 307 310 317 319 318 316 327 322 335 336 336 339 341 341 344 343
311 311 312 312 312 311 311 311 311 311 311 311 311 311 310 311 311 311 311 311 310 311 311 310 310 310 310 310 310 310 307 305 303 301 304 314 314 315 315 314 314 319 323 316 314 312 307 303 306 307 305 303 309 304 310 306 309 303 301 301 298 302 304 308 308 309 307 307 309 309 310 309 308 310 318 312 317 318 318 321 329 330 337 340 341 341 341 341
311 312 312 312 312 312 312 312 311 311 311 311 311 311 310 310 311 311 311 311 310 311 311 310 310 309 309 310 310 309 306 303 302 301 311 313 314 314 314 312 312 316 321 316 314 313 309 305 306 306 305 303 306 303 306 305 306 305 302 299 301 305 307 309 309 308 310 310 308 308 310 309 310 310 319 311 308 316 313 314 324 322 328 336 339 340 340 339
311 311 312 312 312 312 312 312 312 311 311 311 311 311 311 311 311 311 311 311 310 310 310 310 310 309 309 309 309 309 306 301 297 307 313 313 312 313 313 311 312 313 320 322 318 315 312 308 307 306 303 301 304 305 302 305 303 304 302 300 302 307 305 307 309 310 309 310 309 309 309 309 310 311 313 312 307 308 314 314 316 316 321 336 339 339 339 339
311 311 311 312 312 311 311 311 311 312 311 311 311 311 311 311 311 311 311 311 311 310 310 310 310 310 309 310 307 308 301 297 301 310 314 312 312 312 313 311 310 309 317 318 315 311 309 306 305 304 303 300 303 303 302 305 307 305 302 304 305 307 305 308 309 309 309 309 308 309 307 307 311 310 310 310 306 306 312 316 318 315 320 336 337 339 340 339
311 311 311 311 311 311 311 311 311 311 311 311 311 312 312 311 311 311 311 311 311 310 310 310 310 310 309 309 307 306 299 285 304 306 311 311 311 311 312 311 309 307 315 313 311 308 306 304 304 300 300 301 300 299 302 304 307 299 303 304 306 306 305 308 308 308 308 308 307 306 309 310 309 307 309 309 308 310 320 321 319 319 330 338 338 340 339 339
311 311 311 311 311 311 311 311 311 311 311 311 312 311 311 311 311 311 311 311 311 310 310 310 310 310 309 309 307 303 297 297 301 305 309 310 310 310 311 309 308 305 308 308 307 305 305 303 303 300 300 299 301 301 302 302 305 302 300 304 304 306 304 307 307 307 307 307 306 309 310 307 308 305 310 308 311 315 328 327 325 334 341 341 338 341 340 340
311 311 311 311 311 311 310 311 311 311 311 311 311 311 311 311 311 311 310 311 310 310 310 310 310 310 309 305 301 298 297 297 302 305 308 308 307 307 308 304 304 304 303 304 306 304 304 302 301 302 300 298 300 301 302 301 303 300 299 303 304 305 305 306 306 306 306 307 309 308 306 305 308 307 312 311 311 319 325 330 333 340 343 341 341 341 341 341
311 310 310 311 310 310 310 310 311 311 311 311 311 311 310 310 311 310 310 310 310 310 310 309 309 309 310 304 299 295 295 302 304 306 306 305 305 305 305 302 304 302 302 303 305 306 305 302 303 303 298 299 302 300 302 300 297 301 301 303 303 304 305 305 305 306 306 306 307 305 305 307 308 309 313 311 313 323 329 331 335 343 343 341 340 341 341 340
310 310 310 310 310 310 310 311 311 311 311 311 311 311 311 310 310 310 310 310 310 310 309 310 309 309 306 301 299 291 299 304 304 305 305 305 305 304 304 304 303 301 301 301 302 304 303 303 303 305 304 301 303 300 302 300 298 303 302 302 302 303 304 305 304 305 306 306 306 304 304 305 308 306 302 310 319 324 322 334 339 341 340 341 340 340 340 339
310 310 310 310 310 310 310 310 310 310 311 311 311 311 311 310 310 310 310 310 309 309 310 309 309 308 303 301 294 291 304 302 306 306 305 305 303 303 303 303 303 301 300 301 301 304 306 307 307 306 303 299 301 300 301 301 303 301 302 302 302 303 304 304 304 304 305 304 306 305 304 306 307 305 303 307 323 321 319 331 337 338 336 338 339 339 338 338
310 310 310 310 310 310 310 310 310 310 311 311 310 310 310 310 310 310 310 309 309 308 309 308 308 307 303 299 295 296 305 304 306 306 305 304 303 304 304 305 304 302 300 300 301 303 306 307 307 304 297 303 297 300 300 304 302 301 301 298 300 301 300 303 302 303 305 303 306 306 303 302 303 302 306 313 321 319 319 324 336 336 336 337 338 338 337 337
309 309 309 309 309 309 310 310 310 310 310 310 310 309 310 310 310 310 309 308 308 308 308 308 308 307 301 293 298 305 307 308 306 305 305 306 305 306 306 305 304 304 302 301 301 303 305 306 307 302 304 302 299 296 302 304 302 302 300 299 298 298 297 302 304 304 303 304 306 305 294 298 302 305 308 311 320 319 319 319 326 333 335 336 337 337 337 337
309 309 309 309 309 309 309 309 309 310 310 309 310 309 309 309 310 310 309 307 308 308 308 308 308 305 300 294 301 305 306 307 305 303 304 305 303 302 304 305 305 304 305 302 303 305 306 308 305 305 307 302 299 306 300 300 301 296 299 299 295 295 294 301 302 303 301 305 305 305 295 297 302 305 308 315 321 322 320 320 324 332 334 335 337 337 337 338
309 309 309 309 309 309 309 309 309 309 309 309 309 309 308 308 310 310 309 308 308 308 307 307 306 301 295 296 305 306 307 306 301 302 304 302 301 300 301 303 302 304 304 304 303 304 305 305 304 300 299 305 304 299 296 298 298 298 294 291 295 294 297 300 302 302 299 303 305 302 295 297 302 305 308 317 323 325 317 318 323 331 334 335 335 337 337 337
309 309 309 308 308 308 309 309 309 309 309 309 309 308 308 309 309 309 308 308 309 307 308 304 303 300 295 291 298 305 302 298 299 302 304 303 302 299 301 301 302 302 303 303 305 305 306 305 300 300 300 302 298 296 295 294 295 296 294 293 292 294 295 298 301 303 303 302 303 301 295 299 300 305 310 322 324 324 316 317 322 331 336 335 335 337 337 337
309 309 308 308 308 308 309 309 309 309 308 308 308 308 308 308 308 307 308 307 308 308 306 298 300 301 289 301 303 296 297 300 303 302 303 304 302 301 300 300 299 301 302 303 303 303 303 301 302 301 301 298 298 296 292 290 291 292 295 292 295 293 294 294 300 302 303 302 299 301 298 300 303 305 313 322 324 323 315 316 322 328 333 335 335 336 336 336
309 308 308 307 308 308 309 309 309 308 308 308 307 307 307 307 306 306 307 307 308 306 305 305 301 296 293 300 293 295 301 300 298 299 300 303 303 302 300 298 299 299 300 298 301 298 301 297 300 294 296 296 296 294 289 286 290 291 292 292 293 296 296 295 295 299 301 301 300 300 299 300 304 307 314 319 322 320 314 315 320 324 331 333 335 335 335 335
308 308 308 308 308 308 308 309 308 308 307 307 307 308 308 305 307 307 303 303 300 297 292 294 294 286 285 292 297 297 298 300 301 301 299 301 303 303 301 302 300 297 293 293 295 297 299 297 298 294 290 292 292 294 292 294 296 295 295 294 294 293 294 294 299 302 301 299 298 299 297 299 303 305 312 318 320 319 316 317 321 326 331 334 334 334 335 335
308 308 307 307 308 307 308 308 308 308 307 305 306 305 305 300 299 297 300 301 296 296 295 296 297 296 296 296 296 301 304 303 297 300 301 303 300 299 298 298 297 296 293 290 293 295 299 291 290 290 292 293 294 296 296 297 295 296 297 296 294 295 296 298 299 301 302 299 298 299 300 300 301 307 311 315 321 320 318 318 322 327 330 332 333 334 335 336
306 307 307 307 307 307 307 307 307 307 307 307 304 300 294 294 289 290 295 297 299 299 297 297 298 296 295 298 300 299 295 297 300 299 301 305 301 298 295 296 294 291 291 293 292 298 297 290 290 294 295 296 296 297 297 297 295 295 295 295 294 295 294 297 298 301 302 299 297 300 299 300 301 305 311 315 317 317 319 319 323 328 329 331 332 333 334 336
306 307 307 307 307 307 307 307 307 307 306 306 303 297 297 297 301 302 298 289 295 297 297 298 299 297 300 300 301 301 299 294 295 298 302 302 298 293 294 293 291 288 292 292 292 291 290 288 292 295 298 298 297 296 296 296 295 295 294 294 294 294 296 298 299 300 301 299 297 299 297 299 301 303 310 314 316 318 320 321 324 326 326 328 330 332 334 334
306 307 307 307 307 307 307 307 306 306 306 302 299 298 298 302 305 305 301 295 291 297 296 296 295 296 297 300 301 301 293 292 291 295 298 300 296 294 293 291 290 290 291 291 287 287 286 289 294 297 298 296 295 296 295 294 295 294 293 293 291 295 293 291 296 299 300 299 297 299 297 299 302 304 307 314 315 318 320 321 323 326 327 328 330 332 333 333
306 306 306 306 307 306 306 306 305 305 303 301 300 300 303 306 305 303 298 288 287 293 295 296 296 296 296 295 300 298 294 294 294 293 301 298 293 296 292 292 290 290 288 290 289 287 288 293 297 297 297 296 293 294 294 293 292 294 294 294 294 294 294 295 295 298 299 300 300 300 298 298 300 299 301 311 315 318 321 323 325 327 329 331 333 334 335 333
305 305 305 306 306 306 305 305 302 302 304 302 301 304 306 307 306 304 295 290 291 291 299 296 297 297 298 304 301 295 296 296 296 298 299 298 294 293 290 294 292 287 289 290 290 288 289 295 297 295 295 294 293 292 293 292 290 291 294 295 295 296 295 296 297 295 294 293 298 298 291 292 298 299 300 308 310 313 318 320 322 324 327 329 330 331 333 334
305 305 305 306 306 305 305 300 301 302 301 298 301 306 307 307 307 305 294 284 281 290 293 287 299 291 303 294 298 296 297 290 297 298 299 300 300 295 293 289 292 286 289 290 289 290 289 295 295 294 294 293 293 292 294 294 290 290 291 297 296 297 296 296 295 294 290 289 295 299 291 288 298 298 303 306 308 310 316 318 319 322 325 327 328 330 331 331
304 305 305 305 305 305 299 295 303 302 296 298 304 307 306 306 308 302 289 283 280 289 288 294 294 293 298 296 297 297 283 288 297 299 298 301 295 300 291 288 291 291 292 292 289 285 290 291 293 294 293 292 291 290 294 294 291 289 297 296 296 295 295 295 295 295 294 297 298 297 296 292 292 297 303 308 309 309 311 315 319 321 323 326 328 329 331 331
304 304 305 304 304 304 299 301 300 298 298 302 307 306 307 306 306 302 288 274 275 293 288 292 292 300 296 297 298 292 292 296 289 294 299 301 299 296 292 289 288 288 290 289 280 289 291 289 291 291 292 292 290 293 295 295 292 293 297 297 295 296 296 296 295 294 295 294 291 294 297 291 293 299 305 308 306 307 308 312 317 319 322 325 327 329 331 332
304 304 304 304 304 304 305 302 301 298 303 306 306 306 306 307 300 290 283 273 290 289 299 289 300 295 294 297 294 294 293 295 287 295 300 300 300 296 290 291 292 292 292 290 285 289 292 291 293 294 292 290 294 296 297 295 291 296 298 298 298 297 297 297 295 295 294 293 289 294 295 289 291 299 302 307 305 305 307 311 315 318 321 324 326 329 330 332
304 303 303 303 304 304 304 305 302 305 306 307 307 307 306 302 293 282 277 271 291 281 291 293 292 288 293 290 290 292 290 292 293 294 297 294 297 297 296 298 292 290 290 292 289 291 293 296 297 294 293 295 296 297 297 296 296 299 298 296 295 296 295 297 296 295 293 287 290 295 296 293 288 296 301 303 303 305 307 311 315 319 322 324 327 329 330 330
303 303 303 304 301 303 303 299 303 306 306 306 306 305 302 295 283 279 273 281 290 287 292 290 288 293 289 287 284 291 290 291 291 293 290 294 293 293 293 291 294 290 289 290 288 290 292 294 293 294 298 298 298 296 298 298 297 297 294 293 293 292 295 293 293 295 286 285 292 296 296 295 287 293 303 309 309 307 309 311 313 316 319 323 328 329 330 330
302 302 303 304 305 306 300 299 305 307 307 306 305 299 293 280 286 276 276 292 278 284 283 285 289 289 288 290 287 288 288 291 292 291 288 289 288 287 288 282 286 279 278 282 282 289 287 289 292 294 299 297 295 294 294 296 296 295 293 293 289 286 287 283 288 283 285 285 293 296 297 293 291 297 302 309 310 308 311 313 314 316 319 324 327 329 330 330
302 303 304 306 305 305 304 306 307 308 307 305 300 296 285 279 273 282 282 286 279 286 284 291 286 287 288 287 286 289 292 287 292 290 290 289 287 288 290 288 289 284 277 283 283 283 286 291 292 292 295 298 297 290 290 290 292 292 291 290 288 284 282 279 284 287 287 291 296 295 298 293 297 297 305 309 312 310 311 313 314 319 322 323 326 329 330 330
302 303 306 307 306 306 307 308 308 307 304 302 296 288 284 277 277 288 285 285 284 291 290 286 287 288 287 284 286 289 285 290 289 289 289 286 285 284 286 289 289 286 285 286 281 282 278 280 287 290 287 297 296 295 294 292 292 292 295 293 291 290 285 279 284 281 284 288 292 297 294 291 291 295 303 310 313 312 313 314 316 319 323 325 328 330 330 331
302 305 309 309 308 307 308 307 307 307 303 298 291 285 277 279 284 282 283 285 287 289 286 290 285 285 284 288 290 290 289 285 290 288 287 285 284 284 284 285 289 289 288 282 286 285 283 283 289 294 295 297 295 298 298 295 293 294 295 296 293 291 295 287 289 289 289 289 288 291 291 297 296 306 306 309 312 311 312 312 314 317 319 325 327 328 329 330
303 308 309 306 306 307 308 307 308 306 301 294 286 280 279 284 281 286 284 292 289 283 285 286 285 282 284 286 288 287 291 287 288 287 286 286 286 284 287 288 288 290 286 284 287 282 284 283 292 293 296 295 296 299 298 298 285 292 293 289 293 300 297 290 289 296 292 289 286 293 294 298 304 304 309 307 307 309 311 311 312 314 320 325 327 328 330 330
302 305 304 305 306 308 308 308 306 303 299 291 283 279 286 286 291 289 291 288 288 288 284 279 282 281 280 280 283 285 287 289 287 286 283 287 284 286 286 288 292 291 292 291 286 291 283 285 291 291 291 296 300 300 299 298 298 294 289 293 299 302 298 293 285 287 287 284 285 293 290 293 293 290 306 306 305 308 312 313 313 318 325 326 327 328 329 329
300 301 303 303 306 309 308 308 306 301 295 288 282 284 290 285 292 291 293 291 289 288 283 282 283 285 281 282 282 284 287 284 286 286 283 286 281 290 287 288 293 293 294 295 288 288 291 283 288 293 294 296 299 299 296 298 300 295 293 300 292 287 286 292 290 281 282 282 285 291 292 292 294 295 301 303 303 305 310 314 317 320 323 324 326 327 329 331
301 301 298 303 310 309 307 308 303 297 290 283 283 282 290 290 293 292 292 292 292 287 283 285 282 284 284 282 284 285 286 282 286 285 282 284 281 288 288 290 289 294 294 295 291 292 292 284 285 294 293 296 297 296 287 291 297 298 300 296 299 296 292 289 290 291 290 284 284 287 291 287 297 299 301 302 304 308 308 311 314 319 322 323 325 326 328 329
299 299 296 306 309 309 308 306 298 293 286 282 286 286 292 288 291 293 294 292 287 286 285 283 285 283 284 284 285 284 287 287 286 286 284 285 285 291 289 293 291 292 295 295 292 294 289 294 281 289 295 294 288 293 291 292 290 291 292 292 293 295 298 297 297 293 289 286 286 285 284 291 299 303 303 304 305 308 309 311 315 318 322 325 327 327 328 329
301 297 298 307 308 309 306 299 291 286 284 288 290 288 290 288 291 293 295 296 292 293 288 287 286 283 285 285 285 288 285 286 287 286 286 285 286 283 291 292 293 292 294 293 292 293 289 290 284 287 288 287 290 296 296 295 295 293 292 291 293 291 290 287 286 295 294 291 286 286 285 294 301 304 307 306 306 307 309 312 316 318 320 325 327 330 330 329
297 293 295 307 308 306 299 289 288 291 286 285 287 291 289 295 291 293 294 295 293 291 294 290 290 288 288 287 287 287 287 285 287 288 287 286 288 289 291 295 294 295 292 289 291 295 296 293 289 285 288 289 293 296 300 299 297 296 295 293 295 295 295 291 284 288 293 293 294 294 289 291 307 305 306 307 308 308 309 310 313 316 319 323 328 330 331 331
297 294 304 307 308 303 295 289 291 288 286 290 295 294 296 294 293 295 292 294 291 294 291 289 289 289 290 287 288 289 289 286 287 287 287 287 289 292 293 294 295 294 295 293 293 295 295 290 287 288 291 293 296 298 299 299 297 294 295 296 295 293 294 293 294 295 291 292 290 291 287 293 308 316 317 318 319 320 321 313 313 318 321 325 328 329 330 330
297 297 299 306 307 303 293 285 285 287 289 293 293 293 297 295 294 292 292 292 291 291 288 290 291 291 289 292 291 287 291 284 288 288 287 289 290 295 294 294 295 293 293 293 292 296 288 291 289 284 284 286 288 291 293 296 297 294 293 295 296 296 296 297 297 299 290 292 293 290 284 292 307 317 314 312 312 313 316 322 325 324 326 327 328 329 328 328
297 300 298 300 305 300 289 291 287 286 287 286 287 287 293 294 296 295 293 292 294 292 291 290 292 294 292 293 290 291 292 289 288 291 290 291 293 295 296 294 295 294 296 296 296 298 292 291 289 282 279 277 276 278 282 286 290 294 295 294 295 294 295 294 289 292 287 293 293 291 290 300 307 310 309 311 311 311 313 316 322 326 327 326 327 327 326 327
295 288 296 297 299 298 297 297 292 287 286 286 285 290 292 288 296 298 296 295 296 294 293 294 295 295 292 291 289 289 289 294 291 291 292 291 293 295 295 294 294 295 296 296 297 298 293 296 294 290 287 285 287 289 294 294 293 290 292 293 294 295 296 296 295 291 288 293 291 295 296 298 303 306 307 310 312 313 315 318 318 320 325 326 327 326 326 326
297 291 290 287 295 296 295 295 289 288 286 289 284 290 287 290 293 294 296 290 296 294 292 291 293 291 290 286 287 287 291 290 294 293 292 292 294 295 297 297 295 296 296 296 299 298 295 291 294 293 292 293 293 293 294 294 291 292 292 292 294 294 295 294 290 289 296 293 288 296 298 297 299 302 308 310 311 314 318 320 320 322 324 324 325 326 320 325
291 293 294 294 288 288 290 291 293 288 288 288 287 292 289 289 291 288 293 293 293 297 288 290 290 290 291 287 290 286 291 291 291 288 292 294 293 295 294 296 294 296 296 297 301 298 295 289 293 294 293 294 294 294 294 293 293 293 294 294 293 294 294 293 293 295 297 291 290 297 299 299 300 302 306 309 312 315 318 321 322 324 325 325 324 323 323 324
295 294 294 296 288 293 292 293 293 291 289 291 290 292 290 290 289 291 289 290 293 291 294 287 288 288 290 293 290 286 287 286 287 293 292 295 295 295 292 293 295 297 295 297 299 301 296 292 295 294 293 294 295 295 295 293 294 293 293 294 294 294 294 295 295 296 297 296 298 298 299 300 302 303 306 312 316 318 320 323 324 323 323 322 323 322 322 323
288 286 288 292 291 290 292 293 293 293 289 292 287 291 291 291 290 291 292 289 286 291 297 292 289 290 294 293 293 290 291 293 292 288 297 297 294 296 293 293 292 295 296 296 297 300 296 290 293 295 292 293 295 296 295 294 294 292 293 294 294 294 294 295 296 297 298 297 298 298 299 298 303 313 314 318 320 321 321 320 321 322 322 322 321 321 321 323
293 295 292 286 285 292 294 295 294 292 289 289 286 289 290 292 290 293 291 294 291 289 292 292 293 293 293 294 292 291 295 295 297 298 299 299 293 298 296 294 297 293 295 296 297 298 297 291 296 295 289 290 294 294 294 294 294 293 293 294 294 294 293 294 293 297 296 295 296 297 295 296 303 313 317 319 318 318 318 319 320 320 321 321 320 321 321 322
295 297 296 290 285 291 291 294 294 294 288 289 288 288 288 290 293 294 289 294 297 297 297 295 292 290 287 286 288 295 300 300 301 302 302 303 304 302 301 301 299 295 294 296 297 293 296 295 290 291 288 288 295 294 294 293 292 289 289 294 295 296 296 297 297 298 299 299 294 290 293 301 312 312 312 317 317 317 318 319 320 320 321 321 321 321 321 322
Wind_Speed
14 14 14 14 13 13 13 13 14 14 14 14 14 14 14 14 14 14 14 15 15 15 16 17 16 17 19 19 19 17 19 16 15 10 5 5 4 8 9 12 13 14 14 11 10 8 9 10 10 8 8 7 8 11 9 13 8 9 13 15 20 18 22 17 20 16 13 14 12 10 9 10 14 8 6 7 8 7 4 6 4 4 4 3 3 3 13 15
14 14 14 14 14 14 14 14 14 14 14 14 14 14 14 14 14 14 14 14 15 15 15 15 16 17 18 18 18 16 19 15 14 11 2 8 4 8 11 12 14 13 11 10 10 10 10 10 9 10 10 10 8 11 11 10 12 13 13 16 21 19 17 18 18 18 15 16 14 11 9 12 14 10 9 10 9 8 8 8 7 6 5 2 4 10 13 14
14 14 14 15 15 15 16 15 15 15 14 14 14 14 14 14 14 14 15 14 15 15 15 15 16 17 18 17 14 18 18 16 12 4 7 6 8 11 13 14 15 15 9 10 9 10 11 9 8 11 10 10 10 11 14 11 13 16 14 18 21 20 19 19 21 18 17 14 14 16 14 13 12 13 8 12 12 10 11 8 8 9 8 8 9 11 12 14
14 14 15 15 15 15 15 15 15 15 15 15 15 15 15 15 15 15 15 15 15 15 15 15 15 16 17 16 15 19 15 14 6 9 7 7 10 12 14 14 15 14 8 6 6 7 9 7 6 11 10 12 10 13 13 12 12 13 17 18 18 18 20 20 20 18 17 14 16 15 16 14 14 12 10 11 14 14 11 12 10 8 8 11 12 12 12 14
15 15 15 15 14 15 16 15 15 15 16 16 16 16 16 15 15 15 15 15 16 15 15 15 15 15 17 12 19 15 14 9 6 5 7 7 10 12 14 15 13 12 6 3 4 7 8 10 10 10 11 11 12 12 15 16 14 10 20 21 19 15 19 21 17 18 15 13 16 16 18 12 10 13 14 13 14 11 10 10 9 9 5 13 14 14 13 14
15 15 16 15 15 16 16 16 16 16 16 16 16 16 16 16 15 15 15 15 16 16 15 15 16 16 15 13 15 12 8 4 3 3 5 7 10 13 15 16 11 12 4 2 4 4 9 11 11 11 11 12 16 15 14 16 15 15 16 18 18 17 14 11 15 17 16 14 15 17 16 13 14 12 13 15 15 11 3 3 4 5 5 11 12 14 13 15
15 15 16 16 16 17 17 17 17 17 16 16 16 16 15 15 15 16 17 16 16 15 16 15 16 17 14 13 13 7 6 7 2 4 5 7 11 12 15 16 8 9 4 2 5 5 9 10 13 12 12 13 15 15 15 16 16 17 14 14 19 12 14 12 13 13 15 17 17 16 14 16 13 18 10 15 15 4 3 4 3 3 5 9 12 13 14 15
16 15 15 15 16 16 17 17 17 17 16 16 16 16 15 16 15 16 16 17 17 16 15 15 14 15 13 12 10 5 9 4 5 4 3 6 11 14 15 12 6 9 5 2 1 7 6 12 13 11 12 13 11 15 13 14 16 16 17 17 12 15 13 12 9 12 13 15 13 11 12 15 17 15 10 13 13 7 5 4 5 7 8 9 11 13 12 13
16 16 16 17 16 16 16 17 16 16 16 16 17 17 16 16 16 15 16 15 16 15 15 14 14 13 12 10 8 10 1 6 3 3 1 7 14 13 13 8 7 8 5 3 4 4 5 9 12 12 9 14 10 12 14 12 14 17 18 16 9 11 13 15 11 10 12 9 10 12 18 16 15 9 12 12 12 8 7 7 8 9 9 10 11 11 12 12
17 16 16 16 17 17 16 16 16 17 17 16 16 17 17 16 16 16 16 16 16 16 14 14 13 12 11 7 7 7 3 2 2 2 5 11 14 14 10 7 7 7 7 3 3 7 10 5 10 7 10 10 9 11 12 16 8 7 18 18 14 10 11 14 15 13 11 12 12 17 17 16 11 10 13 15 10 10 9 8 9 9 10 10 10 10 10 12
17 17 17 17 17 17 17 18 17 17 18 17 17 17 17 16 17 17 17 18 18 16 15 14 12 11 9 4 5 7 6 3 1 5 11 12 12 10 9 8 6 7 6 6 5 6 7 7 4 3 6 8 6 11 13 12 14 2 8 16 15 11 10 12 16 16 11 13 11 15 17 15 15 14 15 12 12 11 11 10 11 10 10 10 10 10 10 11
16 17 17 17 17 17 17 17 18 18 18 19 17 16 18 17 17 17 16 19 18 17 15 11 11 8 8 8 9 10 6 4 8 9 10 10 8 7 8 7 6 7 6 7 5 4 6 7 6 8 5 4 11 7 14 10 11 9 4 11 16 16 13 15 17 18 16 12 13 11 13 17 18 20 17 11 14 13 13 12 11 11 10 10 11 10 10 11
17 17 18 18 18 18 18 18 18 18 19 19 18 17 17 18 17 17 18 19 17 15 12 11 8 7 7 11 13 18 16 11 10 10 10 6 6 5 2 2 4 6 7 7 5 2 4 6 7 9 12 6 7 8 6 11 11 10 12 10 11 15 18 20 15 17 18 13 13 13 14 19 21 18 15 15 14 14 13 14 13 11 10 10 10 10 10 11
18 17 17 18 18 18 18 18 18 19 19 19 19 17 17 17 18 18 18 18 17 15 13 12 9 7 9 14 8 7 8 8 10 11 7 2 4 3 3 1 3 4 5 8 6 2 4 3 5 9 8 8 8 6 8 7 10 11 11 10 11 12 15 20 18 19 19 14 14 16 17 18 18 20 18 18 16 15 15 15 14 11 11 10 10 10 11 12
17 18 18 18 18 18 19 19 19 19 19 19 18 17 17 18 20 19 19 18 15 12 10 6 7 7 9 9 11 10 5 6 9 7 3 2 2 4 2 5 5 4 5 7 5 4 4 5 7 10 10 10 11 6 10 7 10 12 10 15 14 15 11 17 22 22 20 16 18 17 17 18 16 18 20 17 16 16 16 15 14 12 12 11 11 11 11 11
18 18 18 18 18 19 19 20 19 19 19 19 17 17 18 19 18 18 16 13 11 4 5 9 7 9 10 12 2 5 5 7 6 4 1 4 2 6 9 8 7 6 6 6 4 3 5 6 9 9 11 10 13 10 10 10 10 13 16 15 16 16 12 11 22 22 23 14 17 23 16 13 16 15 18 16 17 16 15 15 14 14 13 12 11 10 10 10
19 19 18 18 19 19 20 19 19 20 19 17 17 17 18 18 16 12 7 4 4 6 6 3 4 5 7 4 4 8 7 8 3 4 4 3 5 9 9 7 5 3 5 5 6 6 7 8 6 8 11 11 12 11 11 14 13 14 16 15 15 18 16 12 15 21 23 20 17 24 19 13 9 14 16 15 17 17 16 16 15 14 12 13 11 11 11 11
20 19 19 20 19 20 20 20 21 20 19 18 17 18 18 16 10 8 8 5 3 4 4 1 4 4 14 11 7 1 5 3 3 1 6 8 9 9 6 6 5 6 5 9 9 11 10 9 9 10 10 13 14 15 16 19 18 16 17 16 15 16 19 15 13 20 23 24 19 20 21 18 8 10 16 17 17 17 17 16 15 15 14 13 11 11 11 11
20 20 19 19 19 20 20 20 20 19 18 18 19 17 16 6 5 4 2 4 6 5 5 7 8 8 4 2 3 5 6 1 5 8 10 10 6 5 6 7 8 8 9 10 10 15 11 9 10 11 15 16 19 20 20 15 16 18 17 14 13 13 15 17 12 16 23 22 20 21 19 21 15 12 15 16 17 18 17 16 13 13 12 11 11 11 10 10
19 20 20 20 19 21 21 20 19 18 19 15 13 12 5 5 4 5 5 5 9 10 12 8 10 13 18 17 13 8 4 7 9 7 7 6 7 8 10 9 10 10 11 12 12 17 11 13 15 16 17 19 23 23 19 14 6 11 15 15 16 14 12 17 13 15 20 18 21 21 20 19 20 13 14 17 16 17 17 17 13 12 11 12 12 12 11 11
21 21 21 21 21 21 21 20 19 19 17 12 11 9 6 6 8 5 8 12 13 15 15 15 16 16 16 12 10 10 9 5 6 8 9 4 7 7 10 10 11 11 13 14 12 11 14 14 17 20 20 18 18 19 19 19 3 8 10 12 14 15 12 14 14 14 17 16 17 21 20 19 21 17 15 15 17 18 18 17 16 14 14 12 13 13 12 10
19 20 20 20 22 21 21 20 19 18 12 7 6 6 6 5 6 6 6 8 7 11 13 18 16 16 13 14 13 8 6 8 10 12 10 8 10 10 10 13 13 13 11 12 11 12 15 18 21 23 17 16 16 20 22 22 14 10 11 11 11 12 11 12 16 14 15 16 12 18 20 19 20 19 16 17 17 15 17 17 17 16 15 12 12 12 11 11
21 20 21 21 22 22 20 20 18 15 7 4 6 7 6 5 4 4 5 9 15 11 12 13 13 13 13 9 8 3 9 10 7 2 6 12 11 14 8 12 13 13 12 13 14 14 15 19 26 17 15 17 17 18 21 22 17 11 10 10 14 12 14 11 15 15 14 12 11 14 17 15 18 19 19 18 18 16 17 17 15 13 13 13 13 12 11 13
21 22 21 21 21 21 20 20 20 10 4 8 10 8 6 5 5 4 7 7 10 11 8 6 6 8 8 4 2 9 9 5 5 4 6 11 12 11 13 14 14 12 13 15 18 17 18 16 16 18 18 17 16 16 18 16 16 15 12 11 10 15 16 11 12 15 14 14 13 11 12 12 15 19 18 18 17 15 15 15 14 13 12 11 10 10 10 13
22 22 22 21 20 21 20 21 10 1 7 10 5 3 3 4 4 2 6 7 7 7 3 5 3 5 2 3 3 7 6 9 11 6 5 10 12 11 14 10 10 13 14 15 17 19 22 20 11 20 20 18 17 17 20 18 16 16 18 13 12 14 16 16 11 17 12 13 15 13 11 14 16 20 19 16 17 17 16 16 16 15 13 12 13 13 12 11
21 22 21 21 20 19 20 11 1 3 9 8 4 2 4 4 3 3 4 3 7 5 4 4 4 5 5 5 5 5 2 7 4 6 7 9 10 10 7 12 10 14 17 16 16 13 16 17 13 17 23 21 20 17 19 20 15 15 15 15 8 7 15 17 13 16 14 14 16 18 14 9 13 18 19 18 19 20 16 17 16 15 14 13 11 12 12 13
21 21 21 21 20 18 9 4 5 9 8 3 3 3 4 3 1 4 4 4 5 4 2 6 5 3 4 4 6 4 7 5 1 3 9 9 11 7 12 11 10 10 11 10 10 14 14 19 18 14 19 20 18 17 17 20 15 14 13 18 14 9 12 14 14 15 10 10 11 21 15 11 12 16 18 19 19 20 20 19 18 15 15 14 13 13 13 14
22 22 22 22 21 16 9 8 9 8 7 4 3 4 3 1 1 2 5 5 2 2 1 4 2 4 6 3 7 9 10 11 9 7 4 8 10 9 12 13 14 15 14 11 16 12 18 19 20 18 19 18 18 17 16 21 16 11 14 17 16 14 12 13 13 12 12 12 12 16 20 13 11 12 19 20 20 22 23 21 19 17 15 15 16 15 15 15
24 24 24 24 22 21 11 7 6 7 3 1 2 3 2 2 5 5 4 6 3 2 3 1 3 4 4 6 8 10 11 6 10 6 6 4 12 6 10 14 14 14 15 17 15 14 14 19 18 18 16 17 16 17 15 21 16 14 13 14 13 13 13 14 11 11 12 10 12 16 20 14 13 9 16 20 20 22 22 21 19 18 18 18 17 17 15 14
23 25 25 24 17 6 2 4 7 5 2 3 3 3 4 4 5 4 4 5 4 3 1 3 6 2 4 8 10 9 11 9 8 4 6 5 7 7 5 7 4 10 13 15 19 16 12 14 15 14 16 15 16 18 16 19 17 12 15 13 11 11 9 9 10 11 10 10 15 17 22 18 12 14 15 17 19 18 16 16 17 19 19 18 17 17 15 14
26 26 25 19 7 3 2 2 0 3 5 4 4 4 5 5 3 4 6 4 3 1 2 3 3 1 9 11 11 10 10 10 9 10 8 6 7 10 8 6 3 7 7 12 16 19 14 16 15 12 14 12 13 17 18 17 18 15 14 13 12 10 10 10 9 10 11 14 16 18 20 23 15 13 15 14 14 19 20 22 22 21 20 17 16 16 15 15
26 27 23 13 3 2 3 4 3 1 4 5 4 4 3 4 5 4 6 5 8 2 2 5 7 9 13 13 12 10 8 7 9 11 10 8 8 8 11 12 9 8 11 11 14 18 15 13 14 15 14 18 16 15 15 18 17 15 16 15 14 11 9 10 11 11 14 12 12 18 19 16 21 10 10 17 17 20 20 18 20 20 19 18 17 16 15 14
25 23 23 7 2 3 5 1 2 1 5 6 5 3 5 4 4 3 7 4 3 2 3 1 5 10 13 14 14 12 10 11 8 12 11 3 6 11 14 15 12 11 9 14 16 18 12 13 18 17 15 15 15 16 17 18 17 17 18 17 16 14 12 12 15 11 10 9 6 18 19 15 11 17 8 13 17 19 19 18 18 19 19 19 17 16 15 15
24 20 7 3 2 2 1 3 1 4 6 5 5 3 4 5 6 6 9 6 8 2 6 4 7 11 13 10 8 4 6 10 8 6 9 5 7 8 9 14 15 14 13 10 15 17 13 14 16 20 13 17 18 17 17 15 19 19 19 18 14 13 12 14 13 14 14 12 10 12 14 12 15 10 16 11 16 17 18 18 17 17 17 15 14 15 15 15
24 15 3 1 2 2 4 4 4 4 4 5 5 3 4 5 6 7 9 7 3 6 6 8 9 13 12 10 6 7 7 3 9 8 9 7 6 6 9 11 18 18 12 11 12 11 17 6 14 20 13 18 19 18 18 17 15 15 15 14 15 13 7 9 3 9 12 10 10 14 9 7 9 6 7 12 14 15 17 19 19 16 15 15 14 15 16 16
14 2 3 2 2 4 4 4 5 4 4 5 3 4 6 7 8 4 5 5 3 3 10 12 13 9 8 8 5 4 5 7 6 8 6 9 4 6 8 8 12 19 13 10 11 13 15 9 19 21 17 19 19 18 18 18 14 15 15 17 15 11 8 2 2 4 4 5 9 6 10 5 5 4 7 13 15 15 16 17 18 17 14 16 15 15 16 15
4 6 2 5 5 2 4 5 5 4 3 4 4 4 4 6 8 11 7 10 7 5 7 6 2 2 4 4 3 2 3 7 8 7 4 3 5 9 9 11 13 16 17 10 11 10 13 10 21 20 20 18 19 17 18 19 10 13 16 16 15 8 2 4 7 5 8 9 7 14 15 10 10 8 12 13 16 16 16 16 18 16 15 16 14 15 16 16
5 3 3 6 5 4 4 6 6 4 3 3 6 9 7 9 6 9 10 13 8 7 6 4 1 1 4 6 3 1 2 7 5 8 2 5 3 6 9 9 14 12 15 13 9 12 12 11 17 21 16 18 18 17 16 16 17 14 12 11 14 13 7 7 5 11 11 10 6 9 16 13 11 8 12 16 18 18 17 17 17 17 15 15 15 17 17 16
3 3 1 6 5 4 6 6 5 3 2 4 5 7 3 8 12 12 9 11 11 8 5 2 4 1 3 5 4 8 6 6 4 5 3 3 3 8 9 6 7 13 11 10 11 10 8 9 13 18 15 18 16 14 16 16 13 10 14 14 11 9 9 10 3 8 9 8 7 9 15 10 12 8 16 16 18 17 17 18 18 17 17 16 14 15 16 16
2 4 2 5 4 4 7 6 3 2 2 4 5 6 8 13 11 11 10 9 4 1 1 1 2 5 4 4 7 5 4 6 3 1 2 3 3 6 8 8 8 8 8 9 7 12 7 6 13 15 17 16 13 13 16 15 16 12 12 13 12 8 6 7 5 6 9 7 7 5 10 10 9 7 11 15 18 18 18 16 15 15 16 16 15 15 16 17
2 4 3 3 3 6 7 5 2 3 4 5 9 11 13 9 9 14 13 11 7 4 6 4 3 3 4 6 1 3 2 5 4 4 2 5 6 7 11 8 7 9 6 8 10 9 4 9 13 15 14 13 12 14 15 17 15 13 12 13 14 13 12 11 9 5 5 7 7 6 7 7 9 6 5 11 15 16 18 17 15 16 17 16 14 16 16 16
4 2 3 3 5 7 4 1 2 3 3 6 7 9 9 10 8 11 10 5 4 4 4 4 6 6 6 4 4 3 5 4 3 3 3 3 4 6 9 13 6 8 7 7 10 8 3 6 12 13 13 13 14 15 13 16 15 13 11 12 14 13 8 8 7 8 7 1 3 7 4 5 6 8 14 11 13 16 17 17 17 16 16 15 14 15 15 16
3 3 4 3 7 8 3 3 2 3 4 7 12 13 11 9 7 7 8 7 4 3 3 4 5 5 2 1 4 5 5 5 5 1 5 2 5 7 3 7 9 7 8 5 7 7 2 3 12 13 12 12 12 14 11 12 17 13 13 13 14 15 12 9 6 8 6 6 6 3 4 5 4 2 3 4 6 6 1 10 13 9 10 13 14 15 16 16
4 4 3 4 8 4 3 3 5 7 8 11 12 13 10 8 7 8 5 3 3 3 2 3 3 3 6 5 6 7 5 5 1 4 5 5 3 1 4 7 7 7 7 6 4 6 3 5 10 11 11 10 7 8 10 9 12 12 12 12 11 12 15 11 10 4 4 8 7 6 8 5 5 3 4 2 3 4 5 5 6 9 10 12 13 14 14 15
6 3 3 2 6 6 1 2 3 7 9 11 11 13 12 8 6 6 9 7 3 5 3 3 4 5 6 5 7 7 7 6 6 4 7 3 3 2 1 4 8 6 4 5 3 1 3 6 7 10 12 12 12 13 15 15 16 12 12 14 13 15 15 10 6 9 6 8 5 3 6 10 9 6 8 6 4 6 6 8 9 8 12 13 13 14 15 16
3 3 2 4 4 5 5 3 3 3 9 9 11 7 9 8 12 1 6 7 6 6 7 8 7 6 7 6 6 7 7 6 7 4 4 1 2 2 4 3 7 7 5 2 4 3 2 3 4 7 11 11 13 13 13 12 12 13 15 16 15 14 16 12 7 7 7 5 4 8 3 9 9 8 8 6 4 6 8 10 13 13 13 14 14 14 15 16
4 3 4 4 4 6 4 2 1 1 6 8 7 8 8 14 13 6 5 2 3 3 3 5 5 6 3 3 6 6 7 7 7 9 6 7 3 0 2 2 5 9 5 5 4 2 4 4 4 3 5 1 7 11 8 12 14 14 16 17 16 16 14 16 11 9 6 3 7 7 6 5 4 6 5 4 4 5 7 9 11 12 14 15 15 16 17 16
3 3 3 2 4 3 5 1 5 8 9 5 5 6 10 15 14 10 4 5 2 5 2 1 2 2 6 4 8 7 4 6 1 3 3 4 4 4 4 5 7 6 6 6 4 4 3 1 2 2 6 2 5 5 11 14 14 13 13 14 16 16 15 16 14 12 10 8 5 8 6 6 5 4 4 2 1 3 7 9 10 11 12 14 15 17 18 20
3 5 2 4 4 4 6 10 11 9 11 7 6 9 14 14 14 10 5 7 4 4 6 5 3 3 4 6 5 4 5 4 2 3 3 4 3 4 5 7 5 7 7 5 3 2 5 2 3 1 4 5 4 7 9 13 14 15 15 15 16 17 15 14 15 14 9 10 13 9 9 11 7 6 4 3 2 3 5 7 9 11 14 16 16 18 19 20
5 5 4 7 7 11 10 7 6 8 5 6 5 9 11 14 16 16 11 2 7 7 5 6 5 7 10 9 8 9 7 7 6 3 3 7 1 2 7 2 6 7 7 4 2 1 5 3 4 3 4 5 4 6 9 10 12 14 14 14 16 16 16 14 13 14 11 12 12 13 14 13 4 4 4 5 5 5 7 10 11 12 13 15 17 19 19 19
4 4 5 7 10 5 6 5 6 5 5 3 5 11 13 15 15 16 14 9 8 6 3 10 11 12 10 10 7 11 12 12 10 9 8 8 3 4 3 4 3 8 7 4 1 1 5 1 3 2 2 7 7 12 12 13 12 12 14 15 17 18 17 15 12 12 12 12 11 12 14 12 1 6 6 5 6 7 8 11 11 12 14 16 18 19 20 20
4 4 5 5 5 5 7 6 7 5 2 3 4 9 8 17 18 17 12 3 6 11 10 7 4 5 5 5 11 12 9 8 9 10 9 7 7 6 5 5 5 5 6 4 3 4 3 4 2 2 1 3 6 13 14 13 11 11 13 17 18 17 14 12 12 11 11 11 11 9 16 9 5 3 1 5 4 6 7 9 10 12 14 16 18 19 19 19
Wind_Direction
357 356 354 355 354 351 349 348 345 344 344 345 342 340 339 339 336 336 339 337 337 341 339 337 333 333 332 331 334 334 325 314 316 315 295 62 344 328 327 326 327 317 306 289 269 248 247 228 216 196 212 206 208 225 192 207 192 196 214 227 234 235 235 231 235 237 234 239 217 197 207 221 244 173 186 194 199 240 174 213 149 217 246 298 12 131 127 136
357 355 354 354 352 349 347 346 344 340 341 342 341 337 337 337 335 332 334 334 333 335 337 337 334 334 333 330 336 334 317 312 304 300 249 40 37 3 349 339 331 329 303 264 248 238 243 221 212 189 205 214 188 218 181 199 194 202 216 224 237 232 237 237 240 236 229 221 238 232 199 229 239 232 168 231 203 198 206 205 190 197 194 154 159 136 140 147
354 353 353 353 352 349 348 346 342 339 337 338 337 335 334 333 333 331 330 330 331 331 332 334 335 333 331 336 342 318 312 305 298 232 113 58 27 5 355 347 337 323 301 272 255 246 237 241 213 197 208 219 192 209 196 199 196 213 222 226 233 236 241 235 237 232 223 230 232 242 244 224 236 245 166 230 255 211 240 234 195 216 202 176 156 154 149 159
352 351 350 350 351 349 345 342 341 340 335 335 334 332 330 332 333 331 328 327 327 327 328 330 333 334 330 337 338 314 303 301 274 123 88 55 13 360 356 348 336 324 329 258 287 265 240 237 217 213 206 222 196 215 196 198 201 202 227 232 235 229 237 234 234 221 223 225 240 244 251 235 236 236 209 225 251 242 241 248 238 228 209 169 165 163 158 167
350 348 348 345 346 346 342 339 340 337 335 332 331 329 328 327 328 327 325 325 326 326 326 327 330 329 330 349 316 307 310 273 94 102 75 34 2 354 352 348 334 331 341 342 265 242 231 219 207 213 222 211 214 201 218 208 208 217 224 233 241 239 237 236 221 215 224 221 240 238 241 225 239 226 217 229 238 247 240 227 215 245 204 167 168 171 170 174
349 347 346 343 342 345 340 338 337 335 331 329 328 327 326 326 325 322 321 321 322 322 322 324 328 332 331 342 304 309 289 308 86 122 43 21 355 351 349 340 326 316 322 286 244 208 214 211 207 203 210 222 208 209 205 217 193 231 226 236 239 245 259 217 212 217 213 222 219 235 239 242 235 218 219 227 233 251 6 83 223 229 177 172 172 169 176 180
348 347 344 342 340 340 338 338 334 331 329 326 326 325 325 323 323 321 320 321 319 319 320 321 326 325 341 311 303 273 282 303 214 77 44 356 344 349 343 328 319 328 326 281 204 222 211 213 212 210 213 220 222 218 212 208 208 228 233 217 229 226 228 227 226 209 201 212 222 228 233 236 212 233 216 220 225 222 100 98 204 148 151 165 173 178 180 183
345 345 342 341 340 336 336 336 331 327 327 324 321 321 322 320 319 318 318 315 316 314 317 317 320 322 337 324 324 293 263 260 74 49 33 344 334 343 338 319 323 325 314 320 246 220 222 222 211 217 225 218 209 217 208 212 210 220 234 232 232 221 224 227 223 218 210 215 225 218 208 214 231 238 205 216 224 185 158 171 162 144 157 170 179 180 182 184
344 342 341 339 337 335 332 334 329 325 324 324 320 320 318 316 314 315 311 311 308 311 310 313 312 322 318 299 317 305 40 77 66 35 323 340 332 328 328 315 337 314 308 263 237 251 238 220 226 223 226 223 221 223 203 199 217 222 230 225 223 227 217 218 218 218 203 203 197 203 223 226 226 217 217 213 200 168 163 173 163 152 170 178 185 184 187 190
340 338 337 336 333 331 331 330 327 323 322 322 321 318 315 313 312 309 307 305 305 303 305 305 307 312 300 309 291 273 72 98 186 267 311 323 325 320 309 301 310 296 278 240 258 226 220 229 229 228 269 281 233 219 210 208 229 212 225 229 228 225 217 210 219 210 205 212 203 218 217 220 201 192 226 216 185 174 179 169 163 179 181 182 188 187 195 198
339 337 335 333 332 331 330 327 322 322 321 320 320 322 315 312 307 305 304 305 306 298 299 298 303 298 286 289 277 268 88 248 352 313 315 318 316 310 316 314 303 278 262 257 253 238 240 257 255 284 253 242 223 229 220 217 230 247 248 220 225 227 216 212 217 220 197 212 208 218 228 223 215 212 227 201 169 176 191 178 180 192 195 187 189 192 194 201
340 337 336 335 335 331 330 326 324 325 321 321 319 318 315 309 305 302 301 305 302 297 291 295 294 281 275 261 246 242 93 299 313 318 314 313 304 308 305 299 279 270 270 253 229 221 239 245 249 236 218 189 236 226 227 224 231 228 210 215 218 223 224 211 213 214 211 214 193 206 234 225 219 221 211 201 178 188 203 198 188 198 200 192 190 192 195 199
338 336 335 333 331 331 330 327 325 324 324 322 319 315 306 306 301 295 299 302 295 288 289 289 292 263 268 264 246 251 268 292 300 306 297 286 294 277 310 293 283 266 260 260 252 217 230 235 252 243 244 274 231 211 23 214 216 228 228 237 217 214 225 212 213 212 210 212 189 183 222 224 219 216 206 192 182 182 197 206 201 199 198 196 192 193 194 197
335 335 333 334 331 331 328 324 323 324 323 321 318 314 305 301 295 292 294 295 290 282 276 273 266 258 252 257 275 263 262 275 288 273 267 278 289 351 184 200 281 261 243 246 251 261 217 237 256 255 269 249 217 24 239 192 214 217 211 224 233 213 223 203 205 204 213 199 195 194 230 233 222 213 201 189 185 179 195 202 202 196 196 194 195 193 194 195
334 333 333 333 331 330 327 325 324 325 323 320 318 311 305 295 290 293 296 288 278 268 255 250 238 246 244 263 255 270 311 271 257 248 233 275 323 307 308 327 283 253 247 244 233 209 223 230 221 226 232 230 278 264 228 213 196 212 202 213 218 229 216 197 197 199 203 191 193 197 235 236 230 215 190 178 177 180 198 201 199 193 194 194 193 193 194 192
333 333 334 333 331 330 329 329 328 325 323 322 315 310 297 287 290 297 293 286 283 260 223 215 218 234 287 284 39 86 220 217 224 185 172 246 293 313 328 307 292 250 229 228 224 210 201 203 217 219 228 209 228 229 219 218 206 204 218 214 212 213 222 196 192 199 201 183 190 202 224 224 229 231 167 173 174 182 199 203 199 194 193 192 195 192 189 185
335 335 333 331 330 329 330 330 328 325 322 321 314 301 292 288 296 295 297 240 185 183 185 224 229 232 263 94 327 266 233 205 100 217 186 206 287 306 306 295 265 222 194 211 201 201 187 216 204 234 230 227 208 216 216 214 208 205 209 225 212 209 205 214 180 199 196 197 196 206 226 229 235 186 173 172 178 183 200 203 201 198 193 193 193 191 189 188
334 333 332 331 329 328 328 330 329 326 325 320 312 299 291 298 290 231 176 195 116 176 191 267 223 241 238 241 251 253 57 134 163 49 275 281 282 280 268 263 260 251 224 198 192 206 186 211 205 224 201 216 210 207 213 208 204 201 198 211 215 212 208 210 191 186 194 197 209 203 218 222 207 175 181 181 183 191 199 203 201 199 196 192 192 192 189 188
332 333 333 331 329 328 328 333 330 329 327 320 294 277 264 280 225 247 228 171 178 163 200 186 204 195 12 51 210 280 247 338 283 271 266 259 245 229 232 248 263 241 215 213 190 201 185 218 208 220 216 202 209 207 212 216 220 219 207 210 215 209 200 209 186 181 188 192 208 206 209 212 203 197 186 183 185 193 201 203 202 201 196 191 193 194 191 188
329 332 331 331 329 328 329 331 331 328 330 318 322 322 260 226 211 217 180 222 243 263 288 303 219 261 290 286 277 300 321 234 266 253 256 237 235 211 220 219 221 227 228 215 191 199 184 206 208 210 216 210 210 213 216 212 348 251 225 208 211 213 206 203 198 172 187 197 207 210 211 208 213 198 189 182 185 198 201 203 199 197 196 194 195 195 191 188
331 332 330 326 326 327 328 330 328 328 326 314 316 321 330 332 309 311 330 292 276 267 267 264 258 262 265 287 286 289 302 288 250 264 246 215 224 207 203 201 212 215 217 223 219 178 207 217 220 220 218 219 214 215 218 225 244 236 219 210 201 203 203 190 197 167 188 201 205 212 212 212 214 207 197 183 187 198 202 202 200 200 198 198 198 196 192 184
331 329 328 325 322 326 328 326 327 327 303 297 305 325 316 316 342 328 310 290 268 264 255 254 262 265 263 263 270 286 277 274 268 249 225 204 195 210 186 201 207 224 205 211 217 210 211 221 224 221 219 223 222 212 214 224 214 225 216 200 206 196 214 178 205 179 189 205 217 200 214 212 212 210 198 194 193 198 202 204 203 200 198 196 198 198 192 184
331 326 325 326 323 324 327 326 324 319 304 301 316 307 307 323 308 309 290 278 282 269 252 255 251 247 254 250 250 217 242 239 269 236 179 188 198 219 208 202 216 224 221 197 209 208 216 223 226 219 216 219 222 217 209 215 219 215 218 208 208 202 196 184 200 188 192 206 212 202 210 213 211 213 205 198 197 199 203 207 209 205 200 199 199 198 190 190
329 329 327 326 328 326 329 325 312 285 266 323 300 299 317 298 295 305 290 290 300 300 262 253 254 249 252 259 139 201 226 244 230 263 153 180 209 197 231 222 225 222 222 206 213 217 219 226 218 216 214 213 212 204 203 204 209 223 231 225 214 198 200 216 178 195 195 207 233 213 206 214 206 207 204 198 196 199 201 206 210 207 206 202 204 202 197 197
329 326 324 326 327 330 331 320 297 250 324 306 306 8 310 307 305 281 299 289 253 227 149 228 221 251 156 89 175 223 215 256 248 256 182 203 200 194 219 222 235 225 222 211 217 223 228 228 219 205 215 203 211 206 205 204 215 214 221 235 221 204 199 203 178 178 188 203 205 201 197 215 202 207 200 194 193 198 197 202 204 203 201 200 203 205 199 202
327 325 326 326 328 328 323 300 36 324 315 304 302 328 325 322 293 275 292 281 297 110 191 163 188 111 149 166 177 233 281 261 203 214 210 211 233 228 203 225 212 228 214 216 216 226 227 218 222 227 205 206 212 218 204 205 211 207 198 212 246 239 189 202 186 182 194 205 189 206 219 204 195 201 200 196 194 196 194 204 203 201 202 201 203 202 199 197
325 324 326 327 326 329 318 302 323 302 299 310 180 279 321 312 336 249 281 237 253 73 307 82 226 110 238 145 188 182 241 93 161 194 195 189 217 205 244 224 209 246 241 223 225 221 213 220 207 222 206 206 209 213 199 199 205 209 187 191 209 218 204 192 189 197 210 213 186 199 219 231 195 202 195 193 194 196 199 202 204 202 199 198 201 203 200 195
326 326 325 326 323 316 286 282 287 276 261 310 256 265 289 325 244 230 256 307 337 176 164 154 49 116 252 154 206 238 292 321 269 174 219 183 212 199 231 237 234 222 219 215 225 208 200 210 215 209 209 207 211 207 189 195 206 200 187 182 196 206 210 205 203 202 218 197 202 193 204 232 231 184 184 186 195 198 201 200 200 198 196 198 202 203 201 197
327 326 325 324 320 304 283 256 252 255 279 284 276 233 248 267 258 290 297 283 61 274 61 205 148 195 218 205 243 245 273 262 263 112 151 167 213 260 218 236 243 246 231 222 226 213 196 211 203 216 212 209 206 201 196 188 199 202 170 179 185 197 207 213 212 207 209 207 212 195 194 217 217 195 178 185 198 198 198 196 194 192 196 201 202 201 200 196
328 325 326 324 318 284 239 227 240 255 267 226 216 240 258 260 255 239 257 249 48 305 290 42 221 248 216 282 285 278 256 247 244 188 197 224 165 212 257 27 274 255 242 230 236 233 200 191 215 214 213 212 201 200 194 189 200 184 174 179 178 188 201 208 221 213 213 222 222 203 195 211 215 200 185 188 199 193 186 190 192 193 198 201 200 198 194 193
327 326 324 323 296 324 273 247 143 229 213 222 236 251 270 239 270 295 254 15 240 49 261 213 294 218 291 295 295 281 259 261 240 219 203 192 192 209 217 215 269 245 255 250 222 221 204 183 199 220 227 217 204 193 192 186 200 184 181 180 168 179 189 194 212 221 220 224 215 211 196 198 227 201 195 196 186 192 189 189 189 192 195 195 194 195 192 190
329 325 323 314 274 247 244 31 13 237 196 203 217 240 232 272 211 242 306 130 275 87 292 324 301 298 299 296 278 278 277 241 227 216 220 196 203 199 199 226 187 206 233 233 212 201 195 200 192 207 220 222 198 189 180 188 192 188 184 186 178 167 171 188 192 201 218 218 194 208 194 199 220 225 188 184 181 189 195 191 189 190 191 193 193 190 187 187
328 325 315 283 202 206 228 323 30 145 163 178 226 254 265 277 289 311 299 24 305 33 344 292 300 284 285 291 275 263 243 254 191 220 215 199 244 210 218 221 205 214 224 210 206 187 189 196 190 198 204 213 196 187 175 185 187 192 189 184 184 172 178 187 196 204 212 217 228 199 190 220 212 225 214 183 181 188 191 195 190 189 191 190 187 183 182 181
326 321 310 51 279 236 244 204 98 147 168 181 229 220 244 267 292 309 301 296 295 182 284 287 290 280 280 271 277 288 252 220 226 189 193 194 209 239 217 215 223 219 246 197 197 179 177 188 192 185 197 192 205 203 179 182 180 194 189 190 192 182 179 183 193 193 197 192 171 194 186 214 205 204 207 189 187 185 188 194 193 194 194 187 179 177 178 179
319 299 282 173 168 176 194 206 179 172 189 213 239 261 272 286 308 328 311 312 309 313 283 308 290 292 285 269 253 249 258 220 208 190 204 211 213 221 220 212 212 230 240 204 186 190 190 192 172 188 189 189 197 201 185 183 186 195 192 196 203 194 171 205 196 209 193 178 163 193 203 183 207 34 179 174 182 188 186 194 193 192 192 178 172 173 177 181
299 47 276 73 26 88 175 188 180 189 210 231 261 251 265 318 305 334 316 338 304 273 300 296 259 263 277 282 155 265 169 266 180 214 206 222 214 232 218 233 215 209 213 208 172 181 180 194 163 182 199 189 197 197 189 191 185 176 196 199 197 198 170 185 80 21 152 178 194 172 203 191 86 150 165 183 182 183 185 189 191 188 181 174 170 171 176 177
2 301 175 25 68 108 156 183 168 179 225 254 253 273 296 302 302 304 311 310 315 312 302 299 5 326 303 318 322 110 234 219 230 223 214 175 230 217 225 226 212 210 214 211 173 193 170 170 161 181 188 189 194 201 190 199 202 170 198 190 198 205 232 214 190 145 188 184 187 181 197 192 186 193 164 177 185 179 183 185 186 177 171 170 170 173 177 177
325 318 259 32 41 141 166 171 169 175 217 233 240 259 291 277 290 308 316 303 292 278 271 281 343 262 291 294 291 341 229 237 165 212 236 170 300 172 212 225 221 226 204 211 201 174 188 155 167 177 181 179 191 196 189 207 218 193 197 174 202 168 196 219 199 175 185 197 180 189 202 211 193 185 164 176 187 181 182 184 181 179 180 177 176 179 179 174
290 277 142 24 51 121 154 159 183 184 213 237 264 288 282 287 302 304 296 294 284 291 278 294 298 226 288 291 312 291 249 220 182 220 246 152 267 171 215 190 226 209 206 209 199 174 200 166 158 184 183 170 179 191 187 193 192 267 203 191 195 195 206 172 207 174 200 195 206 185 194 214 197 199 175 179 186 180 184 188 188 183 184 184 181 179 177 172
306 229 76 34 49 110 141 164 169 173 220 262 303 283 311 303 305 303 293 292 308 222 310 300 242 288 255 269 291 302 206 257 256 170 266 113 268 139 232 234 200 188 202 202 218 181 166 225 159 173 176 170 184 191 192 188 179 187 205 181 187 223 201 223 163 227 189 198 194 176 187 206 190 193 176 184 184 184 186 185 187 192 189 185 180 176 174 175
293 267 64 46 95 129 146 154 190 208 236 269 273 271 294 292 310 295 299 300 271 224 256 285 293 298 323 305 242 227 250 227 234 235 164 136 241 157 235 209 205 182 188 196 201 178 180 187 158 166 169 184 181 191 194 189 188 193 189 187 182 186 178 205 183 214 243 205 191 177 197 201 196 189 173 178 183 187 188 185 187 194 194 185 177 174 174 174
304 301 58 80 140 167 176 225 221 222 260 279 314 321 299 301 295 296 310 328 279 258 212 276 262 263 293 289 297 267 278 258 236 268 41 3 188 277 161 224 232 192 194 182 177 154 327 173 162 167 171 176 178 177 207 188 192 202 197 196 189 198 194 192 181 175 202 226 299 200 191 150 103 168 189 191 182 192 192 193 193 194 193 182 174 173 172 168
330 357 66 117 161 186 245 278 190 220 270 285 304 294 292 292 273 294 297 314 308 243 237 232 277 296 246 302 302 292 263 283 272 49 66 221 257 243 230 221 228 225 210 171 170 137 266 193 167 160 164 170 165 175 195 202 183 200 208 212 197 202 202 208 215 156 196 160 194 137 210 126 131 79 79 84 77 56 117 202 198 186 174 171 167 167 165 163
313 307 156 125 174 201 292 353 327 327 320 321 320 301 296 287 283 306 308 311 287 300 259 270 303 257 292 289 284 284 325 300 138 261 169 215 261 28 247 228 211 219 224 157 199 131 209 174 168 152 155 156 152 179 194 204 203 204 196 205 200 203 197 212 229 147 221 181 202 172 192 141 103 114 121 143 126 179 171 154 159 155 153 157 161 162 162 160
293 238 267 140 177 209 281 348 303 315 322 317 322 309 328 323 311 281 294 295 247 271 279 270 267 296 272 288 282 279 279 267 310 302 304 275 282 230 337 225 190 215 185 85 334 165 272 161 182 158 156 162 167 180 187 185 195 193 202 192 198 200 193 184 214 180 221 177 225 217 165 109 113 118 121 124 150 183 190 177 175 165 158 158 159 161 164 164
351 322 120 179 190 213 234 247 238 291 309 325 323 315 333 315 325 264 223 299 286 250 264 298 285 268 282 286 287 283 285 257 246 305 291 212 148 124 48 182 186 222 188 352 235 232 283 185 243 205 178 173 182 186 184 185 182 196 193 197 192 205 197 203 209 206 203 155 209 228 258 114 137 137 133 139 157 175 172 173 176 177 172 166 162 163 163 168
299 319 343 338 303 191 258 210 231 240 305 325 304 323 320 330 328 348 119 293 172 256 276 247 302 312 330 23 296 298 284 291 249 260 284 302 309 239 137 338 211 225 256 235 246 251 264 218 164 339 242 128 161 168 154 191 180 194 189 198 195 198 198 200 203 210 209 216 205 200 206 255 208 132 123 134 174 182 175 178 181 171 170 169 167 163 164 168
310 68 324 13 305 326 334 103 349 321 301 295 278 292 314 329 337 344 319 198 308 280 262 250 249 267 289 278 300 294 313 286 14 282 291 260 281 215 189 178 217 205 222 235 176 256 285 207 114 297 180 148 198 157 178 184 189 186 192 190 196 194 201 203 206 221 214 222 200 174 214 245 253 87 95 60 99 205 187 183 180 173 166 164 164 166 169 172
8 331 284 1 295 304 307 310 313 305 304 310 309 320 333 333 337 358 341 313 282 271 213 288 242 222 266 277 270 286 283 275 158 264 313 357 297 201 163 157 218 184 201 229 124 359 288 151 29 300 270 248 204 186 183 189 179 189 188 190 194 195 201 207 205 210 215 229 252 285 296 289 290 300 351 54 52 155 166 173 171 171 174 170 172 174 175 176
29 354 338 335 283 282 271 275 288 307 324 336 315 339 327 328 338 343 340 316 310 301 270 248 285 306 313 300 276 262 279 314 316 309 19 349 231 241 164 165 152 179 196 203 128 340 295 97 334 303 256 189 149 167 166 188 189 195 194 194 193 192 199 202 211 212 221 245 252 272 285 282 305 73 92 103 121 148 164 183 184 177 175 175 176 179 180 177
336 338 316 311 306 285 288 281 302 320 326 355 342 330 328 326 330 338 322 306 249 259 274 300 316 306 308 307 290 270 260 266 280 286 291 296 291 5 304 133 274 163 191 151 106 224 258 8 277 252 264 165 150 175 176 180 192 199 195 198 193 194 195 193 202 203 210 219 240 269 272 265 210 91 111 123 147 171 183 184 182 184 182 180 181 182 183 180
341 340 314 305 293 297 299 321 291 291 344 12 330 314 318 309 311 327 330 215 245 234 249 253 291 309 287 251 266 278 299 288 282 291 295 287 282 276 266 289 271 180 171 79 20 288 297 333 351 13 244 119 152 170 173 180 188 203 206 198 196 196 200 190 204 200 205 214 221 231 245 270 42 61 47 133 166 182 195 188 192 190 187 187 184 185 185 182